Regional Weather Roundup
Issued by NWS

Home | Current Version | Previous Version | Graphics & Text | Print | Product List | Glossary On
Versions: 1 2 3 4 5 6 7 8 9 10 11 12 13 14 15 16 17 18 19 20 21 22 23 24 25 26 27 28 29 30 31 32 33 34 35 36 37 38 39 40 41 42 43 44 45 46 47 48 49 50
000
ASUS43 KMKX 280611
RWRWI

WISCONSIN REGIONAL WEATHER ROUNDUP
NATIONAL WEATHER SERVICE MILWAUKEE/SULLIVAN WI
1200 AM CST FRI NOV 28 2014

NOTE: "FAIR" INDICATES FEW OR NO CLOUDS BELOW 12,000 FEET WITH NO
SIGNIFICANT WEATHER AND/OR OBSTRUCTIONS TO VISIBILITY.

WIZ001-002-006>008-014>016-023>028-280700-
NORTHWEST WISCONSIN

CITY           SKY/WX    TMP DP  RH WIND       PRES   REMARKS
SUPERIOR ARPT  MOCLDY     7  -2  68 SW5       30.28F WCI  -2
6HR MIN TEMP:   2; 6HR MAX TEMP:   7;

ASHLAND        CLOUDY     5   0  79 SW5       30.30F WCI  -4
6HR MIN TEMP:  -4; 6HR MAX TEMP:   5;

HAYWARD        CLOUDY     4  -2  76 SW3       30.25F
6HR MIN TEMP:  -4; 6HR MAX TEMP:   4;

SIREN          MOCLDY     8  -1  69 S6        30.26F WCI  -2
6HR MIN TEMP:   1; 6HR MAX TEMP:   8;

CUMBERLAND     CLOUDY     9  -2  61 S9        30.25F WCI  -5
RICE LAKE      CLOUDY     8  -1  67 SE3       30.30S
6HR MIN TEMP:   1; 6HR MAX TEMP:   8;

CHETEK         CLOUDY     8   0  70 CALM      30.29F
6HR MIN TEMP:  -2; 6HR MAX TEMP:   8;

LADYSMITH      MOCLDY     6  -1  74 SE3       30.28F
6HR MIN TEMP:  -3; 6HR MAX TEMP:   6;

EAU CLAIRE     CLOUDY     9   0  67 S3        30.30F
6HR MIN TEMP:  -1; 6HR MAX TEMP:   9;

MENOMONIE      CLOUDY    10   1  66 S6        30.31F WCI   0
6HR MIN TEMP:   4; 6HR MAX TEMP:  10;

NEW RICHMOND   CLOUDY     9   1  69 S7        30.28F WCI  -2
6HR MIN TEMP:   6; 6HR MAX TEMP:   9;

OSCEOLA        CLOUDY    10   2  72 S9        30.30F WCI  -4
6HR MIN TEMP:   5; 6HR MAX TEMP:  10;

$$

WIZ003>005-009-010-017-018-280700-
NORTH CENTRAL WISCONSIN

CITY           SKY/WX    TMP DP  RH WIND       PRES   REMARKS
MANITOWISH WTR PTCLDY   -10 -15  79 CALM      30.22F
6HR MIN TEMP: -13; 6HR MAX TEMP:  -6;

ARBOR VITAE    MOCLDY    -4  -8  82 CALM      30.22F
6HR MIN TEMP:  -6; 6HR MAX TEMP:   2;

WOODRUFF       MOCLDY    -4  -8  82 CALM      30.22F
6HR MIN TEMP:  -6; 6HR MAX TEMP:   2;

RHINELANDER    PTCLDY    -7 -10  87 CALM      30.23F
6HR MIN TEMP: -11; 6HR MAX TEMP:  -1;

EAGLE RIVER    PTCLDY    -7 -12  78 CALM      30.22S
6HR MIN TEMP:  -8; 6HR MAX TEMP:   4;

LAND O LAKES   PTCLDY   -12 -17  79 CALM      30.22F
6HR MIN TEMP: -13; 6HR MAX TEMP:  -4;

PHILLIPS       CLOUDY    -3  -6  84 CALM      30.24F
6HR MIN TEMP:  -8; 6HR MAX TEMP:  -3;

TOMAHAWK       MOCLDY    -7 -11  83 CALM      30.26S
6HR MIN TEMP: -12; 6HR MAX TEMP:  -3;

MEDFORD        CLOUDY     2  -1  84 CALM      30.25F
6HR MIN TEMP:  -3; 6HR MAX TEMP:   4;

MERRILL        MOCLDY    -3  -6  84 CALM      30.27F
6HR MIN TEMP:  -5; 6HR MAX TEMP:   6;

$$

WIZ029-030-035-036-043>047-280700-
CENTRAL WISCONSIN

CITY           SKY/WX    TMP DP  RH WIND       PRES   REMARKS
WAUSAU         MOCLDY     2  -1  88 CALM      30.28F
6HR MIN TEMP:   0; 6HR MAX TEMP:   7;

MOSINEE        MOCLDY     1   0  92 CALM      30.30S
MARSHFIELD     MOCLDY     4   0  83 CALM      30.29F
6HR MIN TEMP:  -3; 6HR MAX TEMP:   4;

STEVENS POINT  MOCLDY    -2  -5  86 CALM      30.32S
6HR MIN TEMP:  -7; 6HR MAX TEMP:   5;

WAUPACA        PTCLDY     4   0  81 CALM      30.35S
6HR MIN TEMP:   0; 6HR MAX TEMP:  10;

WAUTOMA        CLOUDY     2  -2  83 CALM      30.36S
6HR MIN TEMP:  -6; 6HR MAX TEMP:   5;

WISC RAPIDS    MOCLDY     3  -1  83 CALM      30.33F
6HR MIN TEMP:  -2; 6HR MAX TEMP:   6;

CAMP DOUGLAS   CLOUDY     7   4  88 SE2       30.32F
6HR MIN TEMP:  -3; 6HR MAX TEMP:   8;

$$

WIZ011>013-019>022-031-037>040-048>050-280700-
NORTHEAST WISCONSIN

CITY           SKY/WX    TMP DP  RH WIND       PRES   REMARKS
ANTIGO         PTCLDY   -11 -15  83 CALM      30.25F
6HR MIN TEMP: -13; 6HR MAX TEMP:   1;

SHAWANO        PTCLDY     4  -1  82 CALM      30.34F
6HR MIN TEMP:   3; 6HR MAX TEMP:  13;

OCONTO         MOCLDY    -3  -6  87 CALM      30.36R
6HR MIN TEMP:  -4; 6HR MAX TEMP:   5;

STURGEON BAY   PTCLDY     7   0  72 S3        30.32S
6HR MIN TEMP:   5; 6HR MAX TEMP:  16;

GREEN BAY      PTCLDY     2  -2  83 CALM      30.35S
6HR MIN TEMP:  -1; 6HR MAX TEMP:  12;

MANITOWOC      PTCLDY     5   3  91 W8        30.36S WCI  -8
6HR MIN TEMP:   5; 6HR MAX TEMP:  11;

APPLETON       PTCLDY     5   1  85 CALM      30.34S
CLINTONVILLE   PTCLDY     0  -6  78 CALM      30.34S
OSHKOSH        PTCLDY     5   0  79 MISG      30.35S
6HR MIN TEMP:   4; 6HR MAX TEMP:  10;

$$

WIZ032>034-041-042-053>061-280700-
SOUTHWEST WISCONSIN

CITY           SKY/WX    TMP DP  RH WIND       PRES   REMARKS
LA CROSSE      CLOUDY    14   4  64 S6        30.34S WCI   5
6HR MIN TEMP:   8; 6HR MAX TEMP:  14;

SPARTA         CLOUDY    10   3  75 CALM      30.33S
6HR MIN TEMP:   0; 6HR MAX TEMP:  10;

VIROQUA        CLOUDY    10   3  72 S7        30.29S WCI  -1
6HR MIN TEMP:   5; 6HR MAX TEMP:  10;

BOSCOBEL       MOCLDY    13   4  67 CALM      30.37S
6HR MIN TEMP:   6; 6HR MAX TEMP:  13;

PRAIRIE DU CHI CLOUDY    14   2  60 S3        30.35F
6HR MIN TEMP:   9; 6HR MAX TEMP:  14;

PLATTEVILLE    MOCLDY    13   4  68 CALM      30.35F
6HR MIN TEMP:   9; 6HR MAX TEMP:  13;

$$

WIZ056-057-062-063-064-067-068-280700-
SOUTH CENTRAL WISCONSIN

CITY           SKY/WX    TMP DP  RH WIND       PRES   REMARKS
REEDSBURG      MOCLDY     8   4  82 CALM      30.32F
6HR MIN TEMP:   3; 6HR MAX TEMP:   8;

BARABOO/DELLS  MOCLDY     9   4  80 CALM      30.32S
6HR MIN TEMP:   1; 6HR MAX TEMP:   9;

LONE ROCK      CLOUDY    15   5  64 CALM      30.35S
6HR MIN TEMP:   4; 6HR MAX TEMP:  15;

MINERAL POINT  CLOUDY    14   5  67 S3        30.31F
MADISON        MOCLDY    12   6  77 CALM      30.33F
6HR MIN TEMP:   6; 6HR MAX TEMP:  13;

MIDDLETON      CLOUDY    14   7  73 CALM      30.32F
6HR MIN TEMP:   1; 6HR MAX TEMP:  14;

WATERTOWN      PTCLDY     9   6  89 CALM      30.34F
6HR MIN TEMP:   4; 6HR MAX TEMP:  13;

MONROE         CLOUDY    14   9  79 SE5       30.31S WCI   6
JANESVILLE     MOCLDY    14  10  85 CALM      30.35F
$$

WIZ051-052-058>065-066-070>072-280700-
SOUTHEAST WISCONSIN

CITY           SKY/WX    TMP DP  RH WIND       PRES   REMARKS
MILWAUKEE      MOCLDY    14   7  73 W5        30.36F WCI   6
6HR MIN TEMP:  14; 6HR MAX TEMP:  18; 6HR PCP: TRACE;

WAUKESHA       PTCLDY    10   9  92 CALM      30.35F
MILWAUKEE/TIMM PTCLDY    12   9  85 CALM      30.37F
RACINE         MOCLDY    13   7  77 CALM      30.38F
6HR MIN TEMP:  12; 6HR MAX TEMP:  17;

BURLINGTON     MOCLDY     9   7  90 CALM      30.35F
6HR MIN TEMP:   2; 6HR MAX TEMP:  12;

KENOSHA        MOCLDY    12   8  84 CALM      30.36F
6HR MIN TEMP:   8; 6HR MAX TEMP:  18; 6HR PCP: TRACE;

FOND DU LAC    PTCLDY     5   1  83 CALM      30.35F
6HR MIN TEMP:  -2; 6HR MAX TEMP:  11; 6HR PCP: TRACE;

SHEBOYGAN      PTCLDY     4   0  83 CALM      30.35S
6HR MIN TEMP:   1; 6HR MAX TEMP:  11;

WEST BEND      PTCLDY     9   5  85 CALM      30.35S
JUNEAU         PTCLDY     8   5  88 CALM      30.34F
6HR MIN TEMP:   2; 6HR MAX TEMP:  10;

$$

LSZ147-162-280700-
LAKE SUPERIOR

STATION/POSITION TIME  TEMP    WIND        PRES    WAVE
                       AIR SEA DIR/SP/G            HT/PER
                 (UTC) (F)     (DEG/KT/KT) (MB)    (FT/S)
DEVILS ISLAND    0600   13     220/ 10/ 14 1026.9F
PORT WING        0540    7     160/  5/  7 1025.7F
SAXON HARBOR     0508    0      CALM  / 28 1026.4F
$$

LMZ867-665-643>646-280700-
LAKE MICHIGAN

STATION/POSITION TIME  TEMP    WIND        PRES    WAVE


USA.gov is the U.S. government's official web portal to all federal, state and local government web resources and services.